• In Hungary
  • List of Countries
  • For 7 days
  • Water Temperature
  • Satellite Maps
  • Weather Map
  • News
  • Weather Widgets
  • user-avatar
    Login

    Hourly Weather Horodets'ke

    Today, 18 October, Wednesday

    Time Temperature Precipitation Wind Pressure Humidity
    00:00 +13°C° 0 mm 1 mps 748 mmHg 91%
    01:00 +13°C° 0 mm 1 mps 748 mmHg 92%
    02:00 +13°C° 0 mm 1 mps 748 mmHg 92%
    03:00 +12°C° 0 mm 1 mps 748 mmHg 93%
    04:00 +12°C° 0 mm 2 mps 747 mmHg 94%
    05:00 +12°C° 0 mm 2 mps 747 mmHg 94%
    06:00 +13°C° 0 mm 2 mps 747 mmHg 92%
    07:00 +12°C° 0 mm 3 mps 747 mmHg 90%
    08:00 +13°C° 0 mm 3 mps 747 mmHg 88%
    09:00 +16°C° 0 mm 3 mps 747 mmHg 79%
    10:00 +18°C° 0 mm 3 mps 747 mmHg 71%
    11:00 +20°C° 0 mm 3 mps 746 mmHg 63%
    12:00 +21°C° 0 mm 4 mps 746 mmHg 59%
    13:00 +22°C° 0 mm 4 mps 746 mmHg 54%
    14:00 +23°C° 0 mm 4 mps 746 mmHg 50%
    15:00 +21°C° 0 mm 3 mps 745 mmHg 53%
    16:00 +20°C° 0 mm 3 mps 745 mmHg 57%
    17:00 +19°C° 0 mm 3 mps 744 mmHg 61%
    18:00 +18°C° 0 mm 3 mps 744 mmHg 63%
    19:00 +17°C° 0 mm 3 mps 744 mmHg 65%
    20:00 +17°C° 0 mm 3 mps 744 mmHg 67%
    21:00 +16°C° 0 mm 3 mps 744 mmHg 68%
    22:00 +16°C° 0 mm 3 mps 744 mmHg 70%
    23:00 +15°C° 0 mm 2 mps 744 mmHg 71%

    Tomorrow, 19 October, Thursday

    Time Temperature Precipitation Wind Pressure Humidity
    00:00 +15°C° 0 mm 2 mps 744 mmHg 71%
    01:00 +14°C° 0 mm 2 mps 744 mmHg 72%
    02:00 +14°C° 0 mm 2 mps 743 mmHg 72%
    03:00 +14°C° 0 mm 2 mps 743 mmHg 73%
    04:00 +13°C° 0 mm 1 mps 743 mmHg 73%
    05:00 +13°C° 0 mm 1 mps 743 mmHg 73%
    06:00 +14°C° 0 mm 1 mps 743 mmHg 71%
    07:00 +14°C° 0 mm 1 mps 743 mmHg 70%
    08:00 +15°C° 0 mm 1 mps 743 mmHg 68%
    09:00 +18°C° 0 mm 1 mps 743 mmHg 61%
    10:00 +19°C° 0 mm 1 mps 743 mmHg 55%
    11:00 +20°C° 0 mm 2 mps 743 mmHg 49%
    12:00 +21°C° 0 mm 2 mps 743 mmHg 46%
    13:00 +23°C° 0 mm 2 mps 743 mmHg 44%
    14:00 +24°C° 0 mm 2 mps 743 mmHg 41%
    15:00 +23°C° 0 mm 2 mps 743 mmHg 46%
    16:00 +21°C° 0 mm 2 mps 742 mmHg 50%
    17:00 +20°C° 0 mm 1 mps 742 mmHg 54%
    18:00 +19°C° 0 mm 2 mps 742 mmHg 56%
    19:00 +18°C° 0 mm 2 mps 742 mmHg 58%
    20:00 +17°C° 0 mm 2 mps 742 mmHg 60%
    21:00 +16°C° 0 mm 2 mps 742 mmHg 62%
    22:00 +16°C° 0 mm 2 mps 742 mmHg 63%
    23:00 +15°C° 0 mm 2 mps 742 mmHg 65%

    Day after tomorrow, 20 October, Friday

    Time Temperature Precipitation Wind Pressure Humidity
    00:00 +15°C° 0 mm 1 mps 742 mmHg 66%
    01:00 +15°C° 0 mm 1 mps 742 mmHg 68%
    02:00 +14°C° 0 mm 1 mps 742 mmHg 69%
    03:00 +14°C° 0 mm 1 mps 742 mmHg 70%
    04:00 +13°C° 0 mm 1 mps 742 mmHg 72%
    05:00 +13°C° 0 mm 1 mps 742 mmHg 73%
    06:00 +13°C° 0 mm 1 mps 742 mmHg 74%
    07:00 +14°C° 0 mm 1 mps 742 mmHg 74%
    08:00 +14°C° 0 mm 2 mps 743 mmHg 74%
    09:00 +15°C° 0 mm 2 mps 743 mmHg 69%
    10:00 +17°C° 0 mm 2 mps 743 mmHg 65%
    11:00 +18°C° 0 mm 3 mps 743 mmHg 60%
    12:00 +19°C° 0 mm 3 mps 743 mmHg 60%
    13:00 +19°C° 0 mm 3 mps 744 mmHg 59%
    14:00 +20°C° 0 mm 4 mps 744 mmHg 58%
    15:00 +19°C° 0 mm 4 mps 744 mmHg 62%
    16:00 +17°C° 0 mm 4 mps 744 mmHg 66%
    17:00 +15°C° 0 mm 4 mps 744 mmHg 71%
    18:00 +14°C° 0 mm 4 mps 744 mmHg 71%
    19:00 +13°C° 0 mm 4 mps 745 mmHg 72%
    20:00 +12°C° 0 mm 5 mps 745 mmHg 73%
    21:00 +10°C° 0 mm 5 mps 746 mmHg 72%
    22:00 +11°C° 0 mm 4 mps 746 mmHg 71%
    23:00 +10°C° 0 mm 4 mps 746 mmHg 71%

    21 October, Saturday

    Time Temperature Precipitation Wind Pressure Humidity
    00:00 +8°C° 0 mm 4 mps 747 mmHg 71%
    01:00 +8°C° 0 mm 4 mps 747 mmHg 71%
    02:00 +7°C° 0 mm 4 mps 747 mmHg 71%
    03:00 +7°C° 0 mm 4 mps 747 mmHg 73%
    04:00 +6°C° 0 mm 4 mps 747 mmHg 74%
    05:00 +6°C° 0 mm 4 mps 747 mmHg 75%
    06:00 +6°C° 0 mm 4 mps 748 mmHg 74%
    07:00 +6°C° 0 mm 4 mps 748 mmHg 73%
    08:00 +6°C° 0 mm 4 mps 748 mmHg 71%
    09:00 +7°C° 0 mm 4 mps 749 mmHg 64%
    10:00 +10°C° 0 mm 4 mps 749 mmHg 57%
    11:00 +11°C° 0 mm 4 mps 749 mmHg 49%
    12:00 +11°C° 0 mm 4 mps 749 mmHg 46%
    13:00 +12°C° 0 mm 4 mps 749 mmHg 43%
    14:00 +12°C° 0 mm 4 mps 749 mmHg 39%
    15:00 +11°C° 0 mm 3 mps 749 mmHg 42%
    16:00 +10°C° 0 mm 3 mps 749 mmHg 45%
    17:00 +9°C° 0 mm 3 mps 749 mmHg 48%
    18:00 +9°C° 0 mm 3 mps 749 mmHg 51%
    19:00 +8°C° 0 mm 3 mps 749 mmHg 55%
    20:00 +7°C° 0 mm 3 mps 749 mmHg 58%
    21:00 +7°C° 0 mm 3 mps 749 mmHg 60%
    22:00 +5°C° 0 mm 3 mps 749 mmHg 62%
    23:00 +6°C° 0 mm 2 mps 750 mmHg 64%

    22 October, Sunday

    Time Temperature Precipitation Wind Pressure Humidity
    00:00 +5°C° 0 mm 2 mps 750 mmHg 66%
    01:00 +5°C° 0 mm 2 mps 750 mmHg 67%
    02:00 +4°C° 0 mm 2 mps 750 mmHg 68%
    03:00 +4°C° 0 mm 2 mps 749 mmHg 69%
    04:00 +4°C° 0 mm 2 mps 749 mmHg 70%
    05:00 +4°C° 0 mm 2 mps 749 mmHg 70%
    06:00 +3°C° 0 mm 3 mps 749 mmHg 68%
    07:00 +4°C° 0 mm 3 mps 749 mmHg 66%
    08:00 +4°C° 0 mm 3 mps 749 mmHg 65%
    09:00 +7°C° 0 mm 3 mps 749 mmHg 58%
    10:00 +8°C° 0 mm 3 mps 749 mmHg 52%
    11:00 +10°C° 0 mm 3 mps 749 mmHg 46%
    12:00 +10°C° 0 mm 3 mps 748 mmHg 43%
    13:00 +11°C° 0 mm 3 mps 748 mmHg 41%
    14:00 +12°C° 0 mm 3 mps 747 mmHg 38%
    15:00 +11°C° 0 mm 3 mps 747 mmHg 40%
    16:00 +10°C° 0 mm 3 mps 747 mmHg 42%
    17:00 +9°C° 0 mm 2 mps 747 mmHg 45%
    18:00 +9°C° 0 mm 3 mps 746 mmHg 46%
    19:00 +8°C° 0 mm 3 mps 746 mmHg 48%
    20:00 +7°C° 0 mm 3 mps 746 mmHg 49%
    21:00 +7°C° 0 mm 3 mps 746 mmHg 50%
    22:00 +7°C° 0 mm 3 mps 746 mmHg 51%
    23:00 +5°C° 0 mm 3 mps 746 mmHg 52%

    23 October, Monday

    Time Temperature Precipitation Wind Pressure Humidity
    00:00 +5°C° 0 mm 3 mps 746 mmHg 53%
    01:00 +5°C° 0 mm 3 mps 746 mmHg 54%
    02:00 +4°C° 0 mm 3 mps 745 mmHg 55%
    03:00 +4°C° 0 mm 3 mps 745 mmHg 57%
    04:00 +4°C° 0 mm 3 mps 745 mmHg 58%
    05:00 +4°C° 0 mm 3 mps 745 mmHg 60%
    06:00 +4°C° 0 mm 4 mps 745 mmHg 60%
    07:00 +5°C° 0 mm 4 mps 745 mmHg 59%
    08:00 +5°C° 0 mm 4 mps 745 mmHg 59%
    09:00 +6°C° 0 mm 4 mps 745 mmHg 54%
    10:00 +8°C° 0 mm 4 mps 745 mmHg 48%
    11:00 +10°C° 0 mm 4 mps 745 mmHg 43%
    12:00 +11°C° 0 mm 4 mps 745 mmHg 41%
    13:00 +11°C° 0 mm 4 mps 745 mmHg 39%
    14:00 +12°C° 0 mm 4 mps 744 mmHg 37%
    15:00 +11°C° 0 mm 3 mps 744 mmHg 40%
    16:00 +10°C° 0 mm 3 mps 744 mmHg 42%
    17:00 +9°C° 0 mm 2 mps 744 mmHg 45%
    18:00 +9°C° 0 mm 2 mps 745 mmHg 46%
    19:00 +8°C° 0 mm 2 mps 745 mmHg 47%
    20:00 +8°C° 0 mm 2 mps 745 mmHg 49%
    21:00 +8°C° 0 mm 2 mps 745 mmHg 49%
    22:00 +7°C° 0 mm 2 mps 746 mmHg 49%
    23:00 +7°C° 0 mm 2 mps 746 mmHg 50%
    Show more